Location: Krakow
(50.0830°N, 19.9170°E)
Time: 19:14:53
(UTC+01:00)

Altair - Pass Details

Date: 05 December 2023
Orbit: 1501 x 1682 km, 47.2° (Epoch: 02 March)

Event Time Altitude Azimuth Distance (km) Brightness Sun altitude
Rises 06:05:41 0° 188° (S) 4,847 10.3 -11.6°
Reaches altitude 10° 06:09:54 10° 173° (S) 3,834 10.0 -11.0°
Maximum altitude 06:16:23 20° 131° (SE) 3,044 10.1 -10.0°
Drops below altitude 10° 06:22:43 10° 88° (E) 3,747 10.7 -9.1°
Sets 06:26:45 0° 73° (ENE) 4,705 10.9 -8.5°
